Home > Weather > Koror > Past weeks

Flag for Palau Past Weather in Koror, Palau — Yesterday and Last 2 Weeks

Now
77 °F

Mostly cloudy.


Feels Like: 78 °F
Forecast: 79 / 85 °F
Wind: 6 mph from Southwest

Location: Koror / Palau Island

Current Time: Jul 30, 2016 at 4:59:41 AM

Latest Report: Jul 30, 2016 at 3:50 AM


Visibility: 14 mi

Pressure: 29.77 "Hg

Humidity: 94%

Dew Point: 75 °F

Location of KororLocation

Past Weather in Koror — Graph

°F

Koror Temperature Yesterday

Maximum temperature yesterday: 86 °F (at 9:55 AM)
Minimum temperature yesterday: 75 °F (at 10:53 PM)
Average temperature yesterday: 82 °F

High & Low Weather Summary for the Past Weeks

 TemperatureHumidityPressure
High90 °F (Jul 20, 1:50 PM)100% (Jul 15, 5:50 AM)29.89 "Hg (Jul 15, 5:50 AM)
Low75 °F (Jul 16, 5:50 AM)62% (Jul 22, 10:50 AM)29.08 "Hg (Jul 20, 12:50 PM)
Average81 °F87%29.80 "Hg
* Reported Jul 15 3:00 AM — Jul 30 2:50 AM, Koror, Weather by CustomWeather, © 2016

Note: Actual official high and low records may vary slightly from our data, if they occured in-between our weather recording intervals... More about our weather records

Advertising

Koror Weather History for the Previous 24 Hours

Scroll right to see more
 ConditionsComfort  
Time TempWeatherWind HumidityBarometerVisibility
2:50 AM
Sat, Jul 30
75 °FMostly cloudy.3 mph100%29.78 "Hg14 mi
1:50 AM77 °FMostly cloudy.5 mph94%29.78 "Hg14 mi
12:50 AM75 °FSprinkles. Mostly cloudy.No wind94%29.79 "Hg12 mi
11:50 PM
Fri, Jul 29
75 °FSprinkles. Mostly cloudy.3 mph94%29.82 "Hg12 mi
10:53 PM75 °FSprinkles. Mostly cloudy.13 mph94%29.82 "Hg10 mi
9:54 PM79 °FMostly cloudy.5 mph94%29.82 "Hg13 mi
8:50 PM79 °FMostly cloudy.6 mph94%29.80 "Hg13 mi
7:55 PM81 °FSprinkles. Mostly cloudy.8 mph89%29.79 "Hg12 mi
6:55 PM84 °FSprinkles. Mostly cloudy.12 mph74%29.75 "Hg13 mi
5:50 PM82 °FCloudy.17 mph79%29.72 "Hg14 mi
4:55 PM82 °FCloudy.15 mph79%29.71 "Hg14 mi
3:50 PM81 °FMostly cloudy.14 mph89%29.71 "Hg13 mi
2:50 PM79 °FRain showers. Mostly cloudy.9 mph94%29.73 "Hg5 mi
1:50 PM86 °FMostly cloudy.12 mph75%29.73 "Hg13 mi
12:50 PM84 °FMostly cloudy.12 mph79%29.75 "Hg13 mi
11:55 AM86 °FMostly cloudy.12 mph75%29.77 "Hg13 mi
10:50 AM86 °FMostly cloudy.13 mph75%29.77 "Hg13 mi
9:55 AM86 °FPartly sunny.12 mph75%29.78 "Hg13 mi
8:50 AM84 °FPartly sunny.10 mph84%29.80 "Hg13 mi
7:50 AM82 °FBroken clouds.9 mph84%29.78 "Hg14 mi
6:50 AM82 °FBroken clouds.12 mph84%29.76 "Hg14 mi
5:50 AM81 °FPartly cloudy.6 mph89%29.74 "Hg14 mi
4:50 AM81 °FPartly cloudy.8 mph84%29.73 "Hg14 mi
Weather by CustomWeather, © 2016

See weather overviewHow to use our weather pages